1998-067VE

Last updated on Thu Apr 27 2023 00:02:04 GMT+0000 (Coordinated Universal Time)

1 56313U 98067VE 23116.55933402 .00005500 00000+0 10000-3 0 9995 2 56313 51.6407 224.3932 0008445 265.7725 165.0508 15.51196682 350
UTC large
Height (km)
Speed (km/s)
/
Latitude / Longitude
Inclination (degrees)
Orbital Period (minutes)
Azimuth
Elevation
Range (km)
Doppler Factor

Next 0 passes for location: London (51.5072 / 0.1276)

Sorry there are no passes over London.
1998-067VE